Regional Weather Roundup
Issued by NWS

Home | Current Version | Previous Version | Graphics & Text | Print | Product List | Glossary On
Versions: 1 2 3 4 5 6 7 8 9 10 11 12 13 14 15 16 17 18 19 20 21 22 23 24 25 26 27 28 29 30 31 32 33 34 35 36 37 38 39 40 41 42 43 44 45 46 47 48 49 50
000
ASUS43 KMKX 050821
RWRWI

WISCONSIN REGIONAL WEATHER ROUNDUP
NATIONAL WEATHER SERVICE MILWAUKEE/SULLIVAN WI
300 AM CDT TUE MAY 05 2015

NOTE: "FAIR" INDICATES FEW OR NO CLOUDS BELOW 12,000 FEET WITH NO
SIGNIFICANT WEATHER AND/OR OBSTRUCTIONS TO VISIBILITY.

WIZ001-002-006>008-014>016-023>028-050900-
NORTHWEST WISCONSIN

CITY           SKY/WX    TMP DP  RH WIND       PRES   REMARKS
SUPERIOR ARPT  CLEAR     32  30  93 CALM      30.26S
ASHLAND        CLEAR     34  32  92 SW3       30.28R
HAYWARD        CLEAR     38  33  82 CALM      30.26S
SIREN          CLEAR     35  28  76 CALM      30.24F
CUMBERLAND     CLEAR     45  28  53 CALM      30.24S
RICE LAKE      CLEAR     46  26  45 NE3       30.25S
CHETEK         CLEAR     52  31  45 NE5       30.24S
LADYSMITH      CLEAR     50  37  59 E6        30.28R
EAU CLAIRE     MOCLDY    48  35  60 NE7       30.21S
MENOMONIE      PTCLDY    51  30  45 E3        30.22R
NEW RICHMOND   CLEAR     51  25  35 E8        30.20F
OSCEOLA        CLEAR     50  29  44 E6        30.24S
$$

WIZ003>005-009-010-017-018-050900-
NORTH CENTRAL WISCONSIN

CITY           SKY/WX    TMP DP  RH WIND       PRES   REMARKS
MANITOWISH WTR CLEAR     35  32  88 CALM      30.29S
ARBOR VITAE    CLEAR     42  34  74 CALM      30.28F
WOODRUFF       CLEAR     42  34  74 CALM      30.28F
RHINELANDER    CLEAR     43  36  76 CALM      30.29F
EAGLE RIVER    CLEAR     37  33  82 CALM      30.29S
LAND O LAKES   CLEAR     33  33  97 CALM      30.30F
PHILLIPS       CLEAR     42  31  64 CALM      30.27S
TOMAHAWK       PTCLDY    34  31  89 CALM      30.29S
MEDFORD        PTCLDY    44  37  76 E7        30.26S
MERRILL        PTCLDY    40  38  91 NE3       30.28S
$$

WIZ029-030-035-036-043>047-050900-
CENTRAL WISCONSIN

CITY           SKY/WX    TMP DP  RH WIND       PRES   REMARKS
WAUSAU         MOCLDY    48  37  65 E6        30.25F
MOSINEE        CLOUDY    45  37  76 E8        30.27S
MARSHFIELD     CLOUDY    50  40  68 E10       30.24S
STEVENS POINT  CLOUDY    47  37  68 NE8       30.26S
WAUPACA        CLOUDY    50  40  68 N5        30.26S
WAUTOMA        CLOUDY    51  38  61 NE7       30.24S
WISC RAPIDS    CLOUDY    52  36  54 E7        30.24F
CAMP DOUGLAS   CLOUDY    53  42  65 E6        30.20S
$$

WIZ011>013-019>022-031-037>040-048>050-050900-
NORTHEAST WISCONSIN

CITY           SKY/WX    TMP DP  RH WIND       PRES   REMARKS
ANTIGO         MOCLDY    44  34  67 E6        30.28F
SHAWANO        CLOUDY    51  39  63 NE7       30.28S
OCONTO         MOCLDY    41  37  86 CALM      30.29R
STURGEON BAY   MOCLDY    46  32  57 NE5       30.30S
GREEN BAY      CLOUDY    49  38  65 NE8       30.26S
MANITOWOC      CLOUDY    48  36  63 N5        30.25S
APPLETON       CLOUDY    50  32  50 NE9       30.25S
CLINTONVILLE   CLOUDY    46  36  66 NE5       30.27S
OSHKOSH        CLOUDY    54  34  46 NE8       30.23S
$$

WIZ032>034-041-042-053>061-050900-
SOUTHWEST WISCONSIN

CITY           SKY/WX    TMP DP  RH WIND       PRES   REMARKS
LA CROSSE      CLOUDY    55  45  68 CALM      30.16S
SPARTA         CLOUDY    55  40  57 E3        30.20R
VIROQUA        CLOUDY    56  45  65 E8        30.17S
BOSCOBEL       LGT RAIN  57  49  74 CALM      30.17S
PRAIRIE DU CHI LGT RAIN  55  49  79 E9        30.15S
PLATTEVILLE    CLOUDY    52  49  90 E9        30.17S
$$

WIZ056-057-062-063-064-067-068-050900-
SOUTH CENTRAL WISCONSIN

CITY           SKY/WX    TMP DP  RH WIND       PRES   REMARKS
REEDSBURG      CLOUDY    55  41  60 E8        30.19S
BARABOO/DELLS  NOT AVBL
LONE ROCK      CLOUDY    59  40  49 NE6       30.18R
MINERAL POINT  LGT RAIN  54  46  76 SE7       30.18R
MADISON        CLOUDY    56  40  55 NE7       30.19S
MIDDLETON      CLOUDY    58  38  47 E7        30.19S
WATERTOWN      CLOUDY    55  38  51 E9        30.19S
MONROE         LGT RAIN  50  46  87 E8        30.19R
JANESVILLE     RAIN      52  45  76 SE6       30.19R
$$

WIZ051-052-058>065-066-070>072-050900-
SOUTHEAST WISCONSIN

CITY           SKY/WX    TMP DP  RH WIND       PRES   REMARKS
MILWAUKEE      CLOUDY    52  35  52 NE5       30.21R
WAUKESHA       CLOUDY    52  34  50 NE7       30.21S
MILWAUKEE/TIMM CLOUDY    52  32  46 NE3       30.23R
RACINE         CLOUDY    52  37  56 N7        30.22S
BURLINGTON     LGT RAIN  49  42  76 CALM      30.20R
KENOSHA        LGT RAIN  52  41  66 CALM      30.20F
FOND DU LAC    CLOUDY    54  32  43 E10       30.22S
SHEBOYGAN      CLOUDY    47  37  68 NE10      30.24R
WEST BEND      CLOUDY    50  32  50 NE8       30.22S
JUNEAU         CLOUDY    55  33  44 E6        30.22S
$$

LSZ147-162-050900-
LAKE SUPERIOR

STATION/POSITION TIME  TEMP    WIND        PRES    WAVE
                       AIR SEA DIR/SP/G            HT/PER
                 (UTC) (F)     (DEG/KT/KT) (MB)    (FT/S)
W MID LAKE BUOY  0750   39 35  170/  8/ 10 1025.7R   0
DEVILS ISLAND    0800   51     120/  3/  3 1025.3R
PORT WING        0700   38     170/  4/  5 1024.7
SAXON HARBOR     0700   39        CALM     1024.4R
$$

LMZ867-665-643>646-050900-
LAKE MICHIGAN

STATION/POSITION TIME  TEMP    WIND        PRES    WAVE
                       AIR SEA DIR/SP/G            HT/PER
                 (UTC) (F)     (DEG/KT/KT) (MB)    (FT/S)
CHAMBERS ISLAND  0700   44     320/  2/  3 1025.7R
NORTHPORT PIER   0700   45      CALM  /  2 1025.4S
SISTER BAY       0747   47     110/  1/  6   N/A
KEWAUNEE LAKESHO 0712   47      30/  8/ 13 1023.9R
SHEBOYGAN LAKESH 0800   45      10/ 10/ 12 1024.8R
PORT WASHINGTON  0700   52      20/  4/  8 1024.0S
ATWATER BUOY     0800   47     350/  8/ 10 1024.2R
MILWAUKEE LAKESH 0800   53     360/  6/  7   N/A
KENOSHA   LAKESH 0800   53      20/  8/  8 1022.7S
$$

TC  - TEMPERATURE IN CELSIUS
VSB - VISIBILITY IN STATUTE MILES
WCI - WIND CHILL INDEX
HX  - HEAT INDEX




USA.gov is the U.S. government's official web portal to all federal, state and local government web resources and services.